User: anonymous   Login
Location: Bothwell
(42.3833°S, 147.0000°E)
Time: 20:07:27
(UTC+10:00)
Language:

Envisat - Orbit

View from above orbital plane
View from above orbital plane
View from above satellite
View from above satellite

Ground track
Ground track

The orbit data is extracted from the following two-line orbital elements,

1 27386U 02009A   24110.86809689  .00000525  00000-0  18534-3 0  9995
2 27386  98.2773  74.0013 0001209  83.7070 290.3644 14.38544170160121
Epoch (UTC): 19 April 2024 20:50:03
Eccentricity: 0.0001209
inclination: 98.2773°
perigee height: 762 km
apogee height: 764 km
right ascension of ascending node: 74.0013°
argument of perigee: 83.7070°
revolutions per day: 14.38544170
mean anomaly at epoch: 290.3644°
orbit number at epoch: 16012

The dashed part of the orbit path shows where the satellite is in the earth's shadow,  

DLR